Regional Weather Roundup
Issued by NWS

Home | Current Version | Previous Version | Text Only | Print | Product List | Glossary Off
Versions: 1 2 3 4 5 6 7 8 9 10 11 12 13 14 15 16 17 18 19 20 21 22 23 24 25 26 27 28 29 30 31 32 33 34 35 36 37 38 39 40 41 42 43 44 45 46 47 48 49 50

000
ASUS43 KDMX 211707
RWRIA

WEATHER ROUNDUP FOR IOWA
NATIONAL WEATHER SERVICE DES MOINES IA
1100 AM CST FRI NOV 21 2014

NOTE: "FAIR" INDICATES FEW OR NO CLOUDS BELOW 12,000 FEET WITH NO
SIGNIFICANT WEATHER AND/OR OBSTRUCTIONS TO VISIBILITY.

* - THESE STATIONS ARE NOT NWS STATIONS...THUS NOT UNDER NWS
QUALITY CONTROL.  THEY ALSO DO NOT REPORT WEATHER SUCH
AS PRECIPITATION OR FOG.

IAZ001>003-012>014-020>022-031>034-043>046-211800-
   NORTHWEST IOWA

CITY           SKY/WX    TMP DP  RH WIND       PRES   REMARKS
CARROLL *      SUNNY     30  19  64 SE13      30.19F WCI  20
CHEROKEE *     SUNNY     28  21  75 S13G22    30.14F WCI  17
DENISON *      MOSUNNY   28  19  69 S15G23    30.16S WCI  17
SHELDON *      SUNNY     27  19  74 S23G29    30.08F WCI  12
SIOUX CITY     PTSUNNY   31  21  66 SE12      30.15F WCI  22
SPENCER        SUNNY     24  17  74 S18       30.13F WCI  10
STORM LAKE *   SUNNY     27  19  74 S17       30.15F WCI  14
$$

IAZ055>058-069>071-079>083-090>094-211800-
   SOUTHWEST IOWA

CITY           SKY/WX    TMP DP  RH WIND       PRES   REMARKS
AUDUBON *      SUNNY     30  18  59 S14G21    30.19F WCI  20
CRESTON *      SUNNY     30  19  64 SE13G22   30.22F WCI  20
LAMONI         SUNNY     30  18  60 SE12      30.24F WCI  20
RED OAK *      SUNNY     32  21  64 S13       30.21F WCI  22
SHENANDOAH *   MOSUNNY   32  21  64 SE13      30.21F WCI  22
$$

IAZ047>049-059>061-072>074-084-211800-
   CENTRAL IOWA

CITY           SKY/WX    TMP DP  RH WIND       PRES   REMARKS
AMES           SUNNY     26  15  63 S15       30.26F WCI  14
CHARITON *     SUNNY     30  18  59 S15       30.27F WCI  19
DES MOINES     MOSUNNY   30  16  56 SE17      30.27F WCI  18
MARSHALLTOWN   SUNNY     25  13  60 S16       30.28F WCI  12
$$

IAZ004>006-015-016-023>025-035-036-211800-
   NORTH CENTRAL IOWA

CITY           SKY/WX    TMP DP  RH WIND       PRES   REMARKS
ALGONA *       SUNNY     23  16  74 S21G28    30.18F WCI   8
CLARION *      SUNNY     23  14  68 S21G28    30.22S WCI   8
ESTHERVILLE    SUNNY     22  16  78 S23G31    30.14F WCI   6
FORT DODGE *   SUNNY     27  16  63 S13G20    30.21F WCI  16
MASON CITY     SUNNY     20  12  71 S18       30.23F WCI   5
IOWA FALLS *     N/A     23  15  70 SE14G21   30.26F HAZE    WCI  11
$$

IAZ007>011-017>019-026>030-037>042-050>054-066-211800-
   NORTHEAST IOWA

CITY           SKY/WX    TMP DP  RH WIND       PRES   REMARKS
CEDAR RAPIDS   SUNNY     24  12  60 S12G21    30.33F WCI  13
CHARLES CITY * SUNNY     21   9  58 S15G22    30.27F WCI   8
CLINTON *      SUNNY     25   9  50 SE12      30.41F WCI  14
DECORAH *      SUNNY     19   9  63 S10G17    30.27F WCI   8
DUBUQUE        SUNNY     21  10  62 S13       30.35S WCI   9
MONTICELLO *   SUNNY     25  10  54 SE16      30.35F WCI  12
OELWEIN *      SUNNY     19  10  68 S15       30.31S WCI   5
WATERLOO         N/A     22  11  62 S17       30.30F WCI   8
$$

IAZ064-065-067-068-078-211800-
   EAST CENTRAL IOWA

CITY           SKY/WX    TMP DP  RH WIND       PRES   REMARKS
DAVENPORT      SUNNY     26   6  42 SE16      30.39F WCI  14
IOWA CITY      SUNNY     26  13  57 S12       30.38F WCI  16
QUAD CITIES    SUNNY     28   9  44 S10       30.40F WCI  19
$$

IAZ062-063-075>077-085>089-095>099-211800-
   SOUTHEAST IOWA

CITY           SKY/WX    TMP DP  RH WIND       PRES   REMARKS
BURLINGTON     SUNNY     29  10  45 S12       30.39F WCI  19
CENTERVILLE *    N/A     32  18  55 SE10G16   30.31F WCI  24
OTTUMWA        SUNNY     28  16  60 SE13      30.32F WCI  17
$$

ABBREVIATIONS USED IN REMARKS
   TC - TEMPERATURES IN CELSIUS
  WCI - WIND CHILL INDEX
   HX - HEAT INDEX
  VSB - VISIBILITY
$$



USA.gov is the U.S. government's official web portal to all federal, state and local government web resources and services.